• In Slovakia
  • List of Countries
  • For 7 days
  • Water Temperature
  • Satellite Maps
  • Weather Map
  • Weather Widgets
  • user-avatar
    Login

    Hourly Weather Andora

    Today, 17 January, Wednesday

    Time Temperature Precipitation Wind Pressure Humidity
    00:00 -1°C° 0 mm 4 mps 622 mmHg 83%
    01:00 -1°C° 0.1 mm 4 mps 622 mmHg 85%
    02:00 -2°C° 0.1 mm 4 mps 622 mmHg 87%
    03:00 -2°C° 0.1 mm 4 mps 622 mmHg 88%
    04:00 -2°C° 0.1 mm 4 mps 622 mmHg 87%
    05:00 -2°C° 0.1 mm 4 mps 622 mmHg 86%
    06:00 -2°C° 0.1 mm 4 mps 623 mmHg 85%
    07:00 -2°C° 0.1 mm 4 mps 623 mmHg 82%
    08:00 -2°C° 0.1 mm 4 mps 624 mmHg 79%
    09:00 -2°C° 0.1 mm 4 mps 624 mmHg 76%
    10:00 -1°C° 0 mm 4 mps 625 mmHg 73%
    11:00 0°C° 0 mm 4 mps 625 mmHg 69%
    12:00 0°C° 0 mm 4 mps 626 mmHg 66%
    13:00 0°C° 0 mm 4 mps 626 mmHg 65%
    14:00 0°C° 0 mm 4 mps 626 mmHg 64%
    15:00 0°C° 0 mm 4 mps 626 mmHg 63%
    16:00 -1°C° 0 mm 3 mps 626 mmHg 68%
    17:00 -2°C° 0 mm 3 mps 626 mmHg 72%
    18:00 -5°C° 0 mm 3 mps 626 mmHg 77%
    19:00 -5°C° 0 mm 3 mps 626 mmHg 77%
    20:00 -4°C° 0 mm 2 mps 626 mmHg 76%
    21:00 -4°C° 0 mm 2 mps 626 mmHg 76%
    22:00 -5°C° 0 mm 2 mps 627 mmHg 76%
    23:00 -5°C° 0 mm 2 mps 627 mmHg 75%

    Tomorrow, 18 January, Thursday

    Time Temperature Precipitation Wind Pressure Humidity
    00:00 -5°C° 0 mm 2 mps 627 mmHg 75%
    01:00 -5°C° 0 mm 2 mps 626 mmHg 74%
    02:00 -3°C° 0 mm 1 mps 626 mmHg 73%
    03:00 -3°C° 0 mm 1 mps 626 mmHg 72%
    04:00 -3°C° 0 mm 1 mps 626 mmHg 72%
    05:00 -3°C° 0 mm 1 mps 626 mmHg 71%
    06:00 -2°C° 0 mm 1 mps 626 mmHg 71%
    07:00 -1°C° 0 mm 1 mps 626 mmHg 70%
    08:00 0°C° 0 mm 1 mps 627 mmHg 68%
    09:00 +1°C° 0 mm 1 mps 627 mmHg 67%
    10:00 +2°C° 0 mm 1 mps 627 mmHg 65%
    11:00 +4°C° 0 mm 1 mps 628 mmHg 64%
    12:00 +5°C° 0 mm 1 mps 628 mmHg 62%
    13:00 +5°C° 0 mm 1 mps 627 mmHg 63%
    14:00 +5°C° 0 mm 1 mps 627 mmHg 64%
    15:00 +5°C° 0 mm 1 mps 626 mmHg 65%
    16:00 +3°C° 0 mm 1 mps 625 mmHg 70%
    17:00 +2°C° 0 mm 1 mps 625 mmHg 75%
    18:00 -2°C° 0 mm 2 mps 624 mmHg 80%
    19:00 -2°C° 0 mm 2 mps 624 mmHg 78%
    20:00 -2°C° 0 mm 2 mps 624 mmHg 77%
    21:00 -2°C° 0 mm 2 mps 624 mmHg 76%
    22:00 -2°C° 0 mm 2 mps 624 mmHg 76%
    23:00 -2°C° 0 mm 2 mps 623 mmHg 75%

    Day after tomorrow, 19 January, Friday

    Time Temperature Precipitation Wind Pressure Humidity
    00:00 -2°C° 0 mm 2 mps 623 mmHg 75%
    01:00 -2°C° 0 mm 2 mps 623 mmHg 76%
    02:00 -2°C° 0 mm 2 mps 623 mmHg 78%
    03:00 -2°C° 0 mm 2 mps 623 mmHg 79%
    04:00 -2°C° 0 mm 2 mps 622 mmHg 81%
    05:00 -2°C° 0 mm 2 mps 622 mmHg 82%
    06:00 -1°C° 0 mm 2 mps 622 mmHg 83%
    07:00 -1°C° 0.1 mm 2 mps 623 mmHg 82%
    08:00 +1°C° 0.1 mm 2 mps 623 mmHg 81%
    09:00 +2°C° 0.1 mm 2 mps 624 mmHg 81%
    10:00 +2°C° 0 mm 2 mps 624 mmHg 77%
    11:00 +3°C° 0 mm 2 mps 624 mmHg 73%
    12:00 +3°C° 0 mm 3 mps 625 mmHg 69%
    13:00 +3°C° 0 mm 3 mps 625 mmHg 68%
    14:00 +3°C° 0 mm 3 mps 624 mmHg 67%
    15:00 +2°C° 0 mm 3 mps 624 mmHg 67%
    16:00 0°C° 0 mm 3 mps 624 mmHg 70%
    17:00 -1°C° 0 mm 3 mps 624 mmHg 74%
    18:00 -4°C° 0 mm 3 mps 623 mmHg 78%
    19:00 -4°C° 0 mm 3 mps 624 mmHg 76%
    20:00 -4°C° 0 mm 3 mps 624 mmHg 75%
    21:00 -5°C° 0 mm 3 mps 624 mmHg 74%
    22:00 -5°C° 0 mm 3 mps 624 mmHg 75%
    23:00 -5°C° 0 mm 3 mps 624 mmHg 77%

    20 January, Saturday

    Time Temperature Precipitation Wind Pressure Humidity
    00:00 -5°C° 0 mm 3 mps 624 mmHg 78%
    01:00 -4°C° 0 mm 2 mps 624 mmHg 78%
    02:00 -4°C° 0 mm 2 mps 624 mmHg 79%
    03:00 -4°C° 0 mm 2 mps 624 mmHg 79%
    04:00 -4°C° 0 mm 2 mps 624 mmHg 79%
    05:00 -4°C° 0 mm 2 mps 624 mmHg 79%
    06:00 -4°C° 0 mm 2 mps 624 mmHg 79%
    07:00 -3°C° 0 mm 2 mps 624 mmHg 76%
    08:00 -2°C° 0 mm 2 mps 624 mmHg 73%
    09:00 0°C° 0 mm 1 mps 625 mmHg 71%
    10:00 +2°C° 0.1 mm 1 mps 625 mmHg 69%
    11:00 +2°C° 0.1 mm 2 mps 625 mmHg 67%
    12:00 +3°C° 0.1 mm 2 mps 625 mmHg 65%
    13:00 +3°C° 1 mm 2 mps 624 mmHg 69%
    14:00 +2°C° 1 mm 2 mps 623 mmHg 74%
    15:00 +2°C° 1 mm 2 mps 622 mmHg 78%
    16:00 +1°C° 1.2 mm 3 mps 622 mmHg 82%
    17:00 +1°C° 1.2 mm 3 mps 622 mmHg 85%
    18:00 0°C° 1.2 mm 4 mps 622 mmHg 89%
    19:00 0°C° 0.9 mm 4 mps 622 mmHg 89%
    20:00 0°C° 0.9 mm 4 mps 622 mmHg 90%
    21:00 0°C° 0.9 mm 4 mps 623 mmHg 91%
    22:00 0°C° 0.3 mm 4 mps 623 mmHg 91%
    23:00 0°C° 0.3 mm 4 mps 623 mmHg 91%

    21 January, Sunday

    Time Temperature Precipitation Wind Pressure Humidity
    00:00 0°C° 0.3 mm 4 mps 624 mmHg 91%
    01:00 +1°C° 0.5 mm 3 mps 624 mmHg 91%
    02:00 +2°C° 0.5 mm 3 mps 624 mmHg 91%
    03:00 +2°C° 0.5 mm 3 mps 625 mmHg 91%
    04:00 +2°C° 0.7 mm 3 mps 625 mmHg 90%
    05:00 +2°C° 0.7 mm 3 mps 625 mmHg 90%
    06:00 +2°C° 0.7 mm 3 mps 626 mmHg 90%
    07:00 +2°C° 0.4 mm 3 mps 626 mmHg 89%
    08:00 +2°C° 0.4 mm 3 mps 627 mmHg 87%
    09:00 +2°C° 0.4 mm 3 mps 628 mmHg 86%
    10:00 +3°C° 0.1 mm 3 mps 628 mmHg 83%
    11:00 +4°C° 0.1 mm 3 mps 629 mmHg 80%
    12:00 +4°C° 0.1 mm 3 mps 629 mmHg 77%
    13:00 +5°C° 0 mm 3 mps 629 mmHg 76%
    14:00 +5°C° 0 mm 3 mps 629 mmHg 76%
    15:00 +5°C° 0 mm 3 mps 629 mmHg 75%
    16:00 +4°C° 0 mm 3 mps 629 mmHg 77%
    17:00 +2°C° 0 mm 3 mps 629 mmHg 80%
    18:00 +2°C° 0 mm 2 mps 629 mmHg 82%
    19:00 +2°C° 0 mm 2 mps 629 mmHg 83%
    20:00 +1°C° 0 mm 2 mps 629 mmHg 83%
    21:00 +1°C° 0 mm 2 mps 629 mmHg 83%
    22:00 +1°C° 0 mm 2 mps 629 mmHg 83%
    23:00 +1°C° 0 mm 2 mps 629 mmHg 83%

    22 January, Monday

    Time Temperature Precipitation Wind Pressure Humidity
    00:00 +1°C° 0 mm 2 mps 629 mmHg 83%
    01:00 -1°C° 0 mm 2 mps 629 mmHg 83%
    02:00 -1°C° 0 mm 2 mps 629 mmHg 83%
    03:00 -1°C° 0 mm 2 mps 628 mmHg 82%
    04:00 -1°C° 0 mm 2 mps 628 mmHg 82%
    05:00 -1°C° 0 mm 2 mps 628 mmHg 82%
    06:00 -1°C° 0 mm 2 mps 628 mmHg 82%
    07:00 +1°C° 0 mm 2 mps 629 mmHg 80%
    08:00 +2°C° 0 mm 2 mps 629 mmHg 77%
    09:00 +3°C° 0 mm 2 mps 630 mmHg 75%
    10:00 +4°C° 0 mm 2 mps 630 mmHg 72%
    11:00 +6°C° 0 mm 2 mps 631 mmHg 69%
    12:00 +7°C° 0 mm 2 mps 631 mmHg 66%
    13:00 +7°C° 0 mm 2 mps 631 mmHg 68%
    14:00 +7°C° 0 mm 2 mps 630 mmHg 69%
    15:00 +7°C° 0 mm 2 mps 630 mmHg 71%
    16:00 +5°C° 0 mm 2 mps 630 mmHg 76%
    17:00 +4°C° 0 mm 1 mps 629 mmHg 81%
    18:00 +3°C° 0 mm 1 mps 628 mmHg 86%
    19:00 +1°C° 0 mm 2 mps 629 mmHg 84%
    20:00 +1°C° 0 mm 2 mps 629 mmHg 81%
    21:00 +1°C° 0 mm 2 mps 629 mmHg 79%
    22:00 +1°C° 0 mm 2 mps 629 mmHg 75%
    23:00 +1°C° 0 mm 2 mps 629 mmHg 72%
    Show more